Pocatello, ID

10:58 PM MDT on May 25, 2017 (GMT -0600)
Pocatello Regional

Weather History for KPIH - January, 2013

Change the Weather History Date:

Tuesday, January 1, 2013

  Actual Average Record
Temperature  
Mean Temperature 2 °F 24 °F  
Max Temperature 15 °F 32 °F 53 °F (1997)
Min Temperature -11 °F 15 °F -20 °F (1942)
Degree Days  
Heating Degree Days 63 41  
Month to date heating degree days 63 41  
Since 1 July heating degree days 2620 3026  
Cooling Degree Days 0 0  
Month to date cooling degree days 0 0  
Year to date cooling degree days 0 0  
Moisture  
Dew Point 0 °F    
Average Humidity 85    
Maximum Humidity 100    
Minimum Humidity 70    
Precipitation  
Precipitation 0.00 in 0.04 in 0.56 in (2004)
Month to date precipitation 0.00 0.04  
Year to date precipitation 0.00 0.04  
Snow  
Snow 0.00 in - - ()
Month to date snowfall 0.0  
Since 1 July snowfall 19.6  
Snow Depth 7.00 in    
Sea Level Pressure  
Sea Level Pressure 30.56 in    
Wind  
Wind Speed 2 mph (SW)    
Max Wind Speed 8 mph    
Max Gust Speed 9 mph    
Visibility 10 miles    
Events      
T = Trace of Precipitation, MM = Missing Value Source: NWS Daily Summary

Daily Weather History Graph

Daily Weather History Graph

Search for Another Location

Airport or City:

Trip Planner

Search our weather history database for the weather conditions in past years. The results will help you decide how hot, cold, wet, or windy it might be!

Date:

Astronomy

Jan. 01, 2013 Rise Set
Actual Time 8:01 AM MST 5:07 PM MST
Civil Twilight 7:29 AM MST 5:39 PM MST
Nautical Twilight 6:53 AM MST 6:14 PM MST
Astronomical Twilight 6:19 AM MST 6:49 PM MST
Moon 9:49 PM MST (1/1) 10:08 AM MST (1/1)
Length of Visible Light 10h 09m
Length of Day
9h 05m
Waning Gibbous, 83% of the Moon is Illuminated
Jan 1
Waning Gibbous
Jan 4
Last Quarter
Jan 11
New
Jan 18
First Quarter
Jan 26
Full

Hourly Weather History & Observations

Time (MST) Temp. Windchill Dew Point Humidity Pressure Visibility Wind Dir Wind Speed Gust Speed Precip Events Conditions
12:34 AM 10.4 °F - 6.8 °F 85% 30.30 in 10.0 mi Calm Calm - N/A   Overcast
12:53 AM 10.4 °F - 6.8 °F 85% 30.30 in 10.0 mi Calm Calm - N/A   Overcast
1:53 AM 10.0 °F - 7.0 °F 87% 30.50 in 10.0 mi Calm Calm - N/A   Overcast
2:53 AM 10.9 °F - 7.0 °F 84% 30.51 in 10.0 mi Calm Calm - N/A   Overcast
3:53 AM 10.9 °F - 8.1 °F 88% 30.51 in 10.0 mi Calm Calm - N/A   Overcast
4:46 AM 6.8 °F -0.1 °F 3.2 °F 85% 30.33 in 10.0 mi SSW 3.5 mph - N/A   Mostly Cloudy
4:53 AM 5.0 °F -2.1 °F 3.0 °F 92% 30.53 in 10.0 mi SW 3.5 mph - N/A   Mostly Cloudy
5:19 AM 3.2 °F - -0.4 °F 85% 30.33 in 10.0 mi Calm Calm - N/A   Mostly Cloudy
5:53 AM 3.0 °F -4.4 °F -0.0 °F 87% 30.55 in 10.0 mi East 3.5 mph - N/A   Overcast
6:53 AM 1.4 °F -6.2 °F -2.2 °F 85% 30.34 in 10.0 mi ENE 3.5 mph - N/A   Mostly Cloudy
7:53 AM 3.0 °F -4.4 °F -0.0 °F 87% 30.58 in 10.0 mi SW 3.5 mph - N/A   Mostly Cloudy
8:53 AM 1.9 °F - -2.0 °F 83% 30.61 in 6.0 mi Calm Calm - 0.00 in   Overcast
9:53 AM 1.4 °F - 1.4 °F 100% 30.40 in 8.0 mi Calm Calm - N/A   Scattered Clouds
10:53 AM 6.1 °F - -0.9 °F 73% 30.66 in 10.0 mi Calm Calm - N/A   Partly Cloudy
11:53 AM 12.9 °F - 5.0 °F 71% 30.61 in 10.0 mi Calm Calm - N/A   Partly Cloudy
12:53 PM 14.0 °F - 7.0 °F 74% 30.58 in 10.0 mi Calm Calm - N/A   Partly Cloudy
1:53 PM 12.9 °F 5.2 °F 6.1 °F 74% 30.57 in 10.0 mi West 4.6 mph - N/A   Partly Cloudy
2:53 PM 10.0 °F 0.4 °F 5.0 °F 80% 30.56 in 10.0 mi SW 5.8 mph - N/A   Partly Cloudy
3:53 PM 10.0 °F 1.8 °F 5.0 °F 80% 30.57 in 10.0 mi SW 4.6 mph - N/A   Clear
4:53 PM 9.0 °F - 3.9 °F 80% 30.62 in 10.0 mi Calm Calm - N/A   Clear
5:53 PM 1.9 °F - -0.0 °F 91% 30.67 in 10.0 mi Calm Calm - N/A   Clear
6:53 PM 3.0 °F -4.4 °F -0.0 °F 87% 30.69 in 10.0 mi SSW 3.5 mph - N/A   Clear
7:53 PM 1.0 °F - -2.9 °F 83% 30.71 in 8.0 mi Calm Calm - N/A   Clear
8:53 PM 1.0 °F -8.7 °F -2.9 °F 83% 30.70 in 10.0 mi SSW 4.6 mph - N/A   Partly Cloudy
9:53 PM -9.0 °F - -13.0 °F 83% 30.75 in 10.0 mi Calm Calm - N/A   Partly Cloudy
10:53 PM -6.0 °F -14.7 °F -9.9 °F 83% 30.74 in 10.0 mi SW 3.5 mph - N/A   Clear
11:53 PM -8.0 °F - -11.0 °F 86% 30.72 in 7.0 mi Calm Calm - N/A   Scattered Clouds
11:59 PM -7.6 °F - -11.2 °F 84% 30.45 in 6.0 mi Calm Calm - N/A   Mostly Cloudy